QPF
0.02 0.05 0.07 0.12 0.09 0.03 0.05 0.08 0.03 0.02 0.04 0.01 0.00 0.00 0.00 0.00 0.00 0.00 0.01 0.08 0.14 0.13 0.13 0.10 0.07 0.05 0.04 0.03 0.02 0.01 0.01 0.01 0.02 0.03 0.03 0.04 0.04 0.04 0.02 0.01 0.04 0.06 0.05
0.02 0.05 0.04 0.06 0.04 0.05 0.08 0.04 0.03 0.03 0.05 0.01 0.00 0.00 0.00 0.00 0.00 0.00 0.01 0.04 0.11 0.12 0.17 0.18 0.16 0.11 0.08 0.05 0.03 0.02 0.02 0.02 0.04 0.05 0.06 0.04 0.04 0.04 0.02 0.01 0.05 0.08 0.08
0.02 0.05 0.03 0.02 0.03 0.05 0.06 0.06 0.07 0.05 0.07 0.02 0.01 0.00 0.00 0.00 0.00 0.00 0.01 0.01 0.02 0.03 0.09 0.16 0.18 0.13 0.08 0.05 0.04 0.03 0.02 0.01 0.02 0.04 0.05 0.05 0.04 0.02 0.01 0.02 0.04 0.04 0.05
0.01 0.05 0.04 0.02 0.07 0.10 0.07 0.06 0.04 0.04 0.06 0.04 0.03 0.01 0.00 0.00 0.00 0.00 0.00 0.00 0.00 0.00 0.00 0.01 0.03 0.05 0.06 0.06 0.05 0.04 0.03 0.01 0.01 0.01 0.01 0.01 0.02 0.03 0.02 0.02 0.02 0.02 0.03
0.01 0.06 0.06 0.01 0.03 0.09 0.06 0.03 0.04 0.08 0.04 0.03 0.02 0.02 0.00 0.00 0.00 0.00 0.00 0.00 0.00 0.00 0.00 0.00 0.00 0.00 0.01 0.02 0.04 0.03 0.03 0.02 0.01 0.01 0.01 0.00 0.00 0.02 0.03 0.02 0.01 0.02 0.03
0.02 0.04 0.05 0.03 0.02 0.08 0.09 0.04 0.04 0.04 0.03 0.05 0.04 0.02 0.00 0.00 0.00 0.00 0.00 0.00 0.00 0.00 0.00 0.00 0.00 0.00 0.00 0.00 0.01 0.02 0.02 0.02 0.02 0.01 0.01 0.01 0.00 0.01 0.01 0.01 0.02 0.02 0.02
0.03 0.03 0.03 0.07 0.06 0.08 0.09 0.04 0.04 0.02 0.04 0.05 0.07 0.03 0.01 0.00 0.00 0.00 0.00 0.00 0.00 0.00 0.00 0.00 0.00 0.00 0.00 0.00 0.00 0.00 0.01 0.02 0.02 0.01 0.01 0.01 0.00 0.01 0.01 0.00 0.01 0.03 0.02
0.06 0.05 0.04 0.09 0.04 0.04 0.13 0.10 0.07 0.02 0.05 0.04 0.03 0.03 0.01 0.01 0.01 0.00 0.00 0.00 0.00 0.00 0.00 0.00 0.00 0.00 0.00 0.00 0.00 0.00 0.00 0.01 0.02 0.02 0.01 0.01 0.01 0.01 0.01 0.00 0.02 0.05 0.03
0.10 0.09 0.07 0.06 0.04 0.04 0.14 0.16 0.12 0.04 0.04 0.01 0.01 0.01 0.00 0.01 0.01 0.00 0.00 0.00 0.00 0.00 0.00 0.00 0.00 0.00 0.00 0.00 0.00 0.00 0.00 0.00 0.01 0.02 0.01 0.01 0.01 0.01 0.01 0.01 0.04 0.05 0.02
0.16 0.11 0.08 0.05 0.03 0.01 0.03 0.06 0.12 0.10 0.04 0.01 0.01 0.02 0.01 0.01 0.00 0.00 0.00 0.00 0.00 0.00 0.00 0.00 0.00 0.00 0.00 0.00 0.00 0.00 0.00 0.00 0.00 0.01 0.01 0.01 0.02 0.02 0.02 0.02 0.05 0.05 0.04
0.20 0.10 0.08 0.08 0.06 0.03 0.02 0.03 0.10 0.11 0.06 0.02 0.02 0.05 0.05 0.02 0.00 0.00 0.00 0.00 0.00 0.00 0.00 0.00 0.00 0.00 0.00 0.00 0.00 0.00 0.00 0.00 0.00 0.01 0.01 0.01 0.02 0.02 0.02 0.02 0.02 0.03 0.05
0.20 0.10 0.09 0.10 0.15 0.14 0.08 0.04 0.05 0.05 0.06 0.05 0.04 0.05 0.06 0.02 0.00 0.00 0.00 0.00 0.00 0.00 0.00 0.00 0.00 0.00 0.00 0.00 0.00 0.00 0.00 0.00 0.00 0.00 0.01 0.01 0.01 0.02 0.02 0.03 0.01 0.01 0.03
0.21 0.15 0.14 0.15 0.16 0.16 0.17 0.14 0.07 0.03 0.03 0.04 0.07 0.09 0.11 0.08 0.04 0.01 0.00 0.00 0.00 0.00 0.00 0.00 0.00 0.00 0.00 0.00 0.00 0.00 0.00 0.00 0.00 0.00 0.00 0.01 0.01 0.02 0.02 0.04 0.04 0.06 0.11
0.11 0.08 0.10 0.12 0.13 0.13 0.12 0.11 0.06 0.03 0.02 0.02 0.05 0.11 0.14 0.13 0.11 0.05 0.02 0.00 0.00 0.00 0.00 0.00 0.00 0.00 0.00 0.00 0.00 0.00 0.00 0.00 0.00 0.00 0.00 0.00 0.01 0.01 0.02 0.02 0.04 0.09 0.27
0.09 0.05 0.04 0.07 0.10 0.11 0.10 0.07 0.03 0.04 0.02 0.02 0.02 0.05 0.06 0.07 0.08 0.08 0.04 0.01 0.00 0.00 0.00 0.00 0.00 0.00 0.00 0.00 0.00 0.00 0.00 0.00 0.00 0.00 0.00 0.00 0.01 0.01 0.01 0.01 0.01 0.02 0.06
0.14 0.13 0.11 0.11 0.11 0.08 0.07 0.07 0.08 0.09 0.06 0.04 0.02 0.02 0.03 0.06 0.08 0.10 0.11 0.04 0.01 0.00 0.00 0.00 0.00 0.00 0.00 0.00 0.00 0.00 0.00 0.00 0.00 0.00 0.00 0.00 0.00 0.00 0.00 0.00 0.00 0.00 0.01
0.25 0.17 0.12 0.13 0.11 0.08 0.08 0.09 0.12 0.15 0.13 0.10 0.06 0.04 0.03 0.05 0.12 0.15 0.17 0.09 0.03 0.00 0.00 0.00 0.00 0.00 0.00 0.00 0.00 0.00 0.00 0.00 0.00 0.00 0.00 0.00 0.00 0.00 0.00 0.00 0.00 0.00 0.00
0.13 0.11 0.10 0.11 0.10 0.10 0.11 0.16 0.21 0.18 0.13 0.07 0.04 0.03 0.03 0.03 0.08 0.14 0.17 0.12 0.07 0.01 0.00 0.00 0.00 0.00 0.00 0.00 0.00 0.00 0.00 0.00 0.00 0.00 0.00 0.00 0.00 0.00 0.00 0.00 0.00 0.00 0.00
0.05 0.07 0.08 0.09 0.09 0.09 0.10 0.12 0.16 0.15 0.09 0.05 0.03 0.02 0.02 0.03 0.07 0.11 0.14 0.12 0.08 0.02 0.00 0.00 0.00 0.00 0.00 0.00 0.00 0.00 0.00 0.00 0.00 0.00 0.00 0.00 0.00 0.00 0.00 0.00 0.00 0.00 0.00
0.01 0.01 0.02 0.02 0.02 0.03 0.06 0.09 0.11 0.15 0.12 0.06 0.03 0.03 0.03 0.01 0.01 0.04 0.10 0.09 0.07 0.03 0.01 0.01 0.00 0.00 0.00 0.00 0.00 0.00 0.00 0.00 0.00 0.00 0.00 0.00 0.00 0.00 0.00 0.00 0.00 0.00 0.00
0.00 0.00 0.01 0.02 0.03 0.04 0.04 0.08 0.08 0.13 0.13 0.09 0.07 0.08 0.05 0.02 0.02 0.02 0.06 0.10 0.10 0.07 0.05 0.03 0.00 0.00 0.00 0.00 0.00 0.00 0.00 0.00 0.00 0.00 0.00 0.00 0.00 0.00 0.00 0.00 0.00 0.00 0.00
0.00 0.00 0.01 0.03 0.06 0.06 0.09 0.12 0.13 0.16 0.13 0.08 0.06 0.10 0.12 0.10 0.06 0.02 0.02 0.05 0.06 0.08 0.05 0.02 0.01 0.00 0.00 0.00 0.00 0.00 0.00 0.00 0.00 0.00 0.00 0.00 0.00 0.00 0.00 0.00 0.00 0.00 0.00
0.00 0.00 0.01 0.04 0.06 0.09 0.15 0.13 0.16 0.19 0.16 0.11 0.06 0.06 0.09 0.11 0.15 0.12 0.06 0.04 0.04 0.08 0.11 0.06 0.02 0.00 0.00 0.00 0.00 0.00 0.00 0.00 0.00 0.00 0.00 0.00 0.00 0.00 0.00 0.00 0.00 0.00 0.00
0.00 0.00 0.01 0.02 0.04 0.11 0.14 0.12 0.19 0.21 0.20 0.19 0.13 0.08 0.05 0.05 0.07 0.12 0.12 0.10 0.10 0.13 0.17 0.10 0.05 0.02 0.00 0.00 0.00 0.00 0.00 0.00 0.00 0.00 0.00 0.00 0.00 0.00 0.00 0.00 0.00 0.00 0.00
0.01 0.00 0.00 0.01 0.04 0.07 0.09 0.08 0.11 0.18 0.19 0.16 0.12 0.08 0.04 0.03 0.03 0.04 0.07 0.10 0.10 0.10 0.16 0.14 0.10 0.05 0.02 0.02 0.00 0.00 0.00 0.00 0.00 0.00 0.00 0.00 0.00 0.00 0.00 0.00 0.00 0.00 0.00
0.05 0.01 0.02 0.02 0.04 0.04 0.06 0.03 0.02 0.05 0.10 0.13 0.11 0.07 0.03 0.02 0.01 0.01 0.02 0.04 0.05 0.07 0.08 0.05 0.05 0.04 0.03 0.03 0.01 0.00 0.00 0.00 0.00 0.00 0.00 0.00 0.00 0.00 0.00 0.00 0.00 0.00 0.00
MSLP
1014.99 1015.17 1015.26 1015.29 1015.31 1015.34 1015.40 1015.50 1015.64 1015.80 1015.95 1016.07 1016.16 1016.21 1016.22 1016.20 1016.18 1016.15 1016.12 1016.10 1016.08 1016.06 1016.03 1015.98 1015.91 1015.81 1015.69 1015.56 1015.43 1015.31 1015.21 1015.16 1015.16 1015.21 1015.30 1015.40 1015.48 1015.53 1015.51 1015.43 1015.28 1015.11 1014.94
1014.80 1015.01 1015.15 1015.24 1015.32 1015.42 1015.55 1015.71 1015.91 1016.11 1016.30 1016.46 1016.57 1016.63 1016.65 1016.63 1016.58 1016.53 1016.48 1016.43 1016.40 1016.37 1016.34 1016.30 1016.24 1016.16 1016.05 1015.91 1015.75 1015.58 1015.43 1015.32 1015.25 1015.24 1015.29 1015.38 1015.47 1015.54 1015.57 1015.54 1015.44 1015.30 1015.15
1014.48 1014.72 1014.92 1015.10 1015.27 1015.46 1015.68 1015.93 1016.19 1016.45 1016.68 1016.88 1017.03 1017.11 1017.15 1017.13 1017.08 1017.01 1016.93 1016.85 1016.78 1016.72 1016.68 1016.64 1016.59 1016.52 1016.41 1016.27 1016.09 1015.89 1015.69 1015.50 1015.37 1015.29 1015.29 1015.34 1015.43 1015.52 1015.59 1015.61 1015.57 1015.48 1015.36
1014.05 1014.34 1014.62 1014.89 1015.17 1015.47 1015.79 1016.12 1016.45 1016.77 1017.06 1017.30 1017.48 1017.61 1017.67 1017.68 1017.63 1017.56 1017.45 1017.35 1017.24 1017.15 1017.08 1017.03 1016.97 1016.90 1016.80 1016.66 1016.47 1016.24 1015.99 1015.75 1015.54 1015.40 1015.33 1015.33 1015.40 1015.50 1015.59 1015.66 1015.68 1015.64 1015.57
1013.59 1013.93 1014.28 1014.65 1015.04 1015.44 1015.85 1016.26 1016.65 1017.02 1017.35 1017.63 1017.86 1018.04 1018.15 1018.20 1018.20 1018.14 1018.04 1017.92 1017.79 1017.67 1017.57 1017.48 1017.41 1017.33 1017.23 1017.09 1016.89 1016.65 1016.36 1016.07 1015.80 1015.59 1015.45 1015.40 1015.43 1015.51 1015.62 1015.72 1015.78 1015.80 1015.77
1013.18 1013.54 1013.95 1014.40 1014.88 1015.37 1015.85 1016.31 1016.74 1017.14 1017.50 1017.82 1018.10 1018.34 1018.53 1018.65 1018.72 1018.71 1018.65 1018.54 1018.40 1018.26 1018.13 1018.02 1017.92 1017.83 1017.72 1017.57 1017.37 1017.12 1016.81 1016.48 1016.16 1015.88 1015.68 1015.57 1015.55 1015.60 1015.69 1015.80 1015.89 1015.94 1015.95
1012.87 1013.23 1013.68 1014.18 1014.72 1015.26 1015.78 1016.26 1016.71 1017.11 1017.48 1017.83 1018.16 1018.47 1018.75 1018.98 1019.14 1019.22 1019.22 1019.16 1019.04 1018.90 1018.75 1018.62 1018.50 1018.39 1018.27 1018.12 1017.91 1017.65 1017.33 1016.97 1016.61 1016.29 1016.03 1015.85 1015.77 1015.77 1015.82 1015.91 1016.00 1016.06 1016.09
1012.68 1013.04 1013.49 1014.01 1014.57 1015.12 1015.64 1016.11 1016.54 1016.93 1017.30 1017.67 1018.05 1018.43 1018.80 1019.14 1019.42 1019.61 1019.71 1019.72 1019.65 1019.53 1019.39 1019.24 1019.11 1018.98 1018.85 1018.69 1018.49 1018.22 1017.90 1017.53 1017.14 1016.78 1016.46 1016.22 1016.07 1016.01 1016.01 1016.05 1016.11 1016.16 1016.19
1012.64 1012.96 1013.39 1013.90 1014.44 1014.97 1015.46 1015.89 1016.28 1016.63 1016.99 1017.36 1017.77 1018.22 1018.68 1019.13 1019.53 1019.84 1020.05 1020.15 1020.16 1020.08 1019.97 1019.84 1019.70 1019.57 1019.44 1019.28 1019.07 1018.81 1018.49 1018.11 1017.71 1017.31 1016.95 1016.66 1016.44 1016.30 1016.23 1016.22 1016.22 1016.23 1016.24
1012.69 1012.97 1013.37 1013.84 1014.33 1014.81 1015.25 1015.63 1015.97 1016.28 1016.60 1016.97 1017.40 1017.89 1018.42 1018.96 1019.46 1019.88 1020.20 1020.40 1020.49 1020.49 1020.43 1020.33 1020.22 1020.10 1019.98 1019.82 1019.63 1019.37 1019.05 1018.68 1018.27 1017.86 1017.46 1017.12 1016.85 1016.64 1016.50 1016.41 1016.35 1016.30 1016.26
1012.79 1013.03 1013.38 1013.80 1014.24 1014.67 1015.05 1015.37 1015.65 1015.92 1016.21 1016.56 1016.99 1017.49 1018.06 1018.65 1019.22 1019.72 1020.13 1020.42 1020.60 1020.69 1020.70 1020.67 1020.61 1020.53 1020.44 1020.30 1020.13 1019.88 1019.58 1019.21 1018.80 1018.38 1017.97 1017.60 1017.28 1017.01 1016.81 1016.64 1016.52 1016.41 1016.32
1012.88 1013.09 1013.40 1013.76 1014.15 1014.52 1014.85 1015.12 1015.36 1015.59 1015.84 1016.17 1016.57 1017.06 1017.63 1018.23 1018.82 1019.37 1019.84 1020.21 1020.47 1020.65 1020.76 1020.82 1020.84 1020.83 1020.79 1020.70 1020.55 1020.34 1020.05 1019.70 1019.30 1018.88 1018.47 1018.08 1017.73 1017.43 1017.18 1016.96 1016.77 1016.61 1016.46
1012.89 1013.09 1013.36 1013.68 1014.02 1014.35 1014.64 1014.88 1015.08 1015.28 1015.51 1015.80 1016.17 1016.62 1017.15 1017.72 1018.30 1018.85 1019.35 1019.77 1020.12 1020.39 1020.61 1020.78 1020.91 1021.00 1021.03 1021.01 1020.91 1020.73 1020.48 1020.15 1019.77 1019.37 1018.96 1018.58 1018.23 1017.92 1017.64 1017.39 1017.16 1016.95 1016.76
1012.81 1012.99 1013.23 1013.52 1013.83 1014.12 1014.38 1014.61 1014.80 1014.99 1015.20 1015.45 1015.78 1016.18 1016.64 1017.15 1017.68 1018.20 1018.70 1019.16 1019.57 1019.95 1020.28 1020.58 1020.83 1021.04 1021.18 1021.24 1021.22 1021.09 1020.87 1020.58 1020.23 1019.86 1019.48 1019.12 1018.79 1018.48 1018.21 1017.94 1017.70 1017.46 1017.25
1012.61 1012.78 1013.00 1013.26 1013.54 1013.81 1014.06 1014.27 1014.47 1014.66 1014.86 1015.09 1015.37 1015.71 1016.10 1016.54 1017.00 1017.48 1017.96 1018.44 1018.91 1019.37 1019.82 1020.25 1020.65 1020.99 1021.25 1021.41 1021.47 1021.42 1021.26 1021.01 1020.71 1020.38 1020.04 1019.72 1019.42 1019.14 1018.89 1018.64 1018.39 1018.16 1017.93
1012.32 1012.48 1012.67 1012.90 1013.15 1013.40 1013.64 1013.86 1014.07 1014.26 1014.46 1014.68 1014.93 1015.22 1015.54 1015.91 1016.30 1016.73 1017.18 1017.67 1018.19 1018.73 1019.29 1019.85 1020.38 1020.85 1021.24 1021.53 1021.68 1021.71 1021.62 1021.45 1021.20 1020.92 1020.64 1020.37 1020.11 1019.88 1019.65 1019.43 1019.21 1018.99 1018.77
1011.98 1012.11 1012.28 1012.47 1012.69 1012.91 1013.14 1013.36 1013.57 1013.78 1013.99 1014.21 1014.44 1014.70 1014.97 1015.28 1015.62 1016.00 1016.44 1016.93 1017.48 1018.09 1018.73 1019.40 1020.05 1020.65 1021.16 1021.56 1021.82 1021.95 1021.95 1021.85 1021.68 1021.48 1021.26 1021.05 1020.85 1020.66 1020.47 1020.28 1020.09 1019.88 1019.69
1011.63 1011.74 1011.87 1012.02 1012.19 1012.38 1012.59 1012.80 1013.01 1013.23 1013.45 1013.68 1013.91 1014.15 1014.40 1014.68 1014.99 1015.34 1015.76 1016.25 1016.82 1017.46 1018.17 1018.92 1019.66 1020.36 1020.97 1021.48 1021.85 1022.08 1022.19 1022.19 1022.12 1022.00 1021.86 1021.72 1021.57 1021.43 1021.28 1021.12 1020.95 1020.77 1020.60
1011.32 1011.40 1011.49 1011.60 1011.73 1011.87 1012.04 1012.23 1012.43 1012.65 1012.88 1013.11 1013.36 1013.60 1013.85 1014.12 1014.42 1014.76 1015.16 1015.65 1016.22 1016.88 1017.61 1018.39 1019.18 1019.95 1020.65 1021.24 1021.72 1022.07 1022.29 1022.41 1022.45 1022.44 1022.39 1022.32 1022.24 1022.14 1022.02 1021.88 1021.72 1021.56 1021.41
1011.06 1011.12 1011.18 1011.25 1011.34 1011.44 1011.56 1011.71 1011.89 1012.09 1012.32 1012.56 1012.82 1013.08 1013.35 1013.63 1013.93 1014.27 1014.66 1015.12 1015.67 1016.31 1017.03 1017.80 1018.60 1019.40 1020.15 1020.82 1021.39 1021.86 1022.21 1022.47 1022.64 1022.74 1022.80 1022.82 1022.80 1022.74 1022.65 1022.53 1022.38 1022.22 1022.08
1010.87 1010.93 1010.97 1011.01 1011.05 1011.11 1011.18 1011.29 1011.42 1011.60 1011.82 1012.06 1012.33 1012.61 1012.90 1013.20 1013.51 1013.85 1014.22 1014.66 1015.16 1015.75 1016.41 1017.14 1017.91 1018.70 1019.47 1020.19 1020.85 1021.43 1021.92 1022.32 1022.63 1022.88 1023.05 1023.16 1023.22 1023.21 1023.15 1023.04 1022.89 1022.74 1022.60
1010.72 1010.79 1010.84 1010.87 1010.89 1010.90 1010.93 1010.99 1011.08 1011.22 1011.41 1011.64 1011.92 1012.22 1012.53 1012.84 1013.17 1013.49 1013.85 1014.23 1014.67 1015.18 1015.76 1016.41 1017.11 1017.86 1018.63 1019.39 1020.12 1020.80 1021.41 1021.96 1022.43 1022.81 1023.12 1023.34 1023.47 1023.52 1023.50 1023.41 1023.27 1023.12 1022.99
1010.60 1010.70 1010.77 1010.81 1010.82 1010.81 1010.80 1010.80 1010.85 1010.95 1011.11 1011.33 1011.59 1011.90 1012.22 1012.55 1012.88 1013.20 1013.52 1013.85 1014.21 1014.62 1015.09 1015.64 1016.26 1016.95 1017.69 1018.46 1019.24 1020.01 1020.75 1021.43 1022.04 1022.57 1023.00 1023.33 1023.55 1023.67 1023.69 1023.63 1023.53 1023.40 1023.27
1010.46 1010.62 1010.72 1010.78 1010.79 1010.77 1010.73 1010.70 1010.71 1010.77 1010.90 1011.10 1011.36 1011.66 1012.00 1012.33 1012.66 1012.96 1013.24 1013.51 1013.79 1014.10 1014.47 1014.90 1015.43 1016.04 1016.74 1017.50 1018.31 1019.14 1019.97 1020.76 1021.50 1022.15 1022.69 1023.13 1023.44 1023.64 1023.72 1023.72 1023.66 1023.56 1023.47
1010.30 1010.50 1010.65 1010.74 1010.77 1010.75 1010.70 1010.64 1010.62 1010.65 1010.75 1010.94 1011.19 1011.50 1011.84 1012.18 1012.50 1012.78 1013.03 1013.25 1013.45 1013.67 1013.93 1014.26 1014.69 1015.23 1015.87 1016.61 1017.42 1018.29 1019.17 1020.04 1020.85 1021.60 1022.23 1022.75 1023.15 1023.42 1023.58 1023.65 1023.65 1023.62 1023.58
1010.10 1010.35 1010.54 1010.65 1010.70 1010.68 1010.63 1010.57 1010.54 1010.56 1010.65 1010.83 1011.09 1011.40 1011.75 1012.09 1012.42 1012.69 1012.91 1013.08 1013.22 1013.36 1013.54 1013.78 1014.13 1014.59 1015.17 1015.86 1016.65 1017.51 1018.41 1019.31 1020.17 1020.96 1021.65 1022.23 1022.69 1023.03 1023.27 1023.41 1023.50 1023.54 1023.58
Thickness
5724 5723 5722 5721 5721 5720 5719 5719 5719 5720 5722 5723 5722 5721 5722 5723 5724 5725 5727 5729 5731 5734 5736 5738 5741 5744 5747 5749 5752 5754 5756 5756 5755 5755 5756 5757 5757 5757 5756 5757 5758 5759 5759
5723 5723 5721 5719 5718 5718 5717 5716 5717 5718 5719 5720 5718 5718 5717 5716 5717 5720 5722 5723 5726 5729 5732 5735 5738 5741 5743 5746 5748 5750 5751 5751 5751 5752 5753 5754 5755 5755 5754 5755 5756 5756 5756
5722 5722 5719 5718 5717 5717 5716 5714 5715 5716 5716 5716 5715 5715 5713 5711 5711 5714 5717 5719 5721 5723 5726 5729 5733 5736 5739 5741 5743 5744 5745 5746 5748 5749 5750 5752 5753 5753 5753 5753 5752 5753 5753
5721 5721 5718 5717 5718 5717 5715 5713 5712 5710 5710 5711 5710 5711 5710 5709 5708 5709 5712 5714 5716 5717 5719 5722 5726 5729 5733 5736 5738 5740 5741 5743 5745 5747 5749 5751 5751 5751 5751 5750 5750 5750 5750
5719 5719 5718 5717 5716 5716 5714 5713 5710 5708 5706 5706 5706 5706 5707 5707 5706 5706 5707 5709 5711 5713 5714 5716 5719 5722 5727 5731 5734 5737 5738 5741 5743 5745 5747 5748 5748 5747 5747 5747 5747 5747 5747
5718 5717 5717 5716 5715 5713 5711 5710 5707 5705 5704 5704 5704 5702 5703 5704 5704 5704 5704 5705 5707 5708 5709 5710 5712 5715 5719 5723 5728 5732 5735 5738 5740 5742 5743 5744 5744 5744 5743 5743 5744 5744 5744
5715 5715 5716 5715 5714 5712 5710 5707 5703 5701 5701 5701 5696 5693 5695 5698 5699 5700 5701 5701 5702 5702 5702 5704 5706 5708 5712 5716 5721 5726 5730 5733 5734 5735 5737 5738 5739 5740 5740 5740 5740 5741 5741
5711 5712 5714 5714 5713 5711 5708 5705 5701 5698 5699 5699 5694 5687 5682 5686 5691 5694 5696 5697 5697 5697 5697 5698 5700 5702 5705 5709 5713 5718 5721 5724 5726 5728 5730 5732 5733 5735 5736 5736 5736 5736 5737
5708 5708 5710 5712 5711 5710 5707 5704 5701 5700 5697 5696 5697 5691 5681 5678 5683 5687 5689 5692 5693 5692 5691 5692 5693 5695 5698 5701 5704 5707 5711 5714 5718 5721 5724 5725 5727 5729 5730 5731 5731 5731 5731
5704 5703 5704 5707 5709 5708 5706 5704 5702 5701 5698 5694 5693 5694 5693 5690 5682 5678 5681 5684 5686 5686 5686 5687 5687 5689 5691 5693 5695 5698 5701 5704 5708 5713 5717 5719 5720 5723 5724 5725 5726 5726 5726
5697 5698 5698 5701 5702 5703 5701 5701 5701 5700 5698 5695 5693 5691 5690 5689 5688 5680 5673 5674 5677 5678 5680 5682 5683 5683 5685 5687 5688 5690 5692 5696 5700 5704 5707 5711 5714 5717 5718 5719 5720 5720 5720
5689 5690 5690 5692 5695 5696 5696 5696 5698 5698 5696 5695 5694 5692 5690 5688 5686 5682 5674 5670 5670 5671 5673 5675 5677 5678 5679 5680 5681 5682 5684 5688 5691 5694 5698 5702 5706 5708 5711 5713 5714 5714 5713
5682 5684 5685 5687 5690 5690 5691 5692 5693 5693 5694 5692 5691 5691 5692 5692 5691 5686 5677 5669 5666 5666 5667 5668 5671 5673 5673 5673 5673 5675 5677 5679 5682 5685 5689 5693 5696 5698 5700 5704 5705 5706 5705
5678 5679 5680 5681 5684 5685 5686 5687 5688 5689 5691 5690 5690 5689 5689 5690 5690 5689 5683 5674 5665 5662 5664 5664 5666 5668 5668 5668 5667 5668 5669 5672 5675 5677 5679 5682 5685 5686 5688 5691 5693 5694 5695
5678 5677 5676 5677 5678 5679 5680 5682 5682 5683 5686 5687 5687 5687 5688 5689 5688 5690 5689 5685 5674 5662 5661 5663 5662 5663 5662 5663 5662 5661 5662 5664 5666 5668 5669 5671 5672 5673 5675 5677 5679 5680 5680
5680 5678 5677 5675 5674 5675 5676 5677 5678 5680 5681 5683 5683 5684 5685 5685 5685 5686 5687 5685 5680 5672 5663 5664 5662 5660 5658 5657 5656 5655 5655 5655 5657 5659 5660 5660 5660 5661 5663 5665 5666 5666 5665
5676 5675 5675 5674 5674 5675 5676 5677 5677 5678 5678 5679 5679 5679 5681 5682 5681 5682 5682 5680 5677 5673 5665 5661 5660 5657 5654 5653 5651 5650 5649 5647 5648 5650 5651 5649 5649 5650 5652 5654 5655 5654 5653
5672 5671 5671 5671 5672 5674 5676 5676 5677 5677 5677 5676 5676 5676 5678 5679 5677 5678 5678 5677 5674 5672 5667 5659 5656 5653 5651 5649 5647 5645 5642 5639 5640 5642 5642 5640 5639 5640 5642 5643 5644 5643 5643
5669 5669 5669 5669 5671 5674 5675 5675 5675 5675 5675 5675 5676 5676 5677 5676 5674 5674 5675 5675 5673 5671 5667 5661 5656 5652 5648 5644 5642 5639 5635 5631 5633 5634 5633 5632 5631 5631 5633 5634 5634 5634 5633
5667 5667 5668 5669 5670 5671 5672 5673 5672 5672 5671 5673 5675 5676 5677 5676 5675 5674 5673 5674 5672 5668 5664 5660 5656 5650 5645 5641 5638 5633 5627 5625 5627 5628 5626 5624 5624 5624 5625 5626 5626 5625 5625
5661 5661 5662 5663 5665 5666 5668 5669 5669 5669 5668 5669 5672 5675 5676 5676 5676 5675 5674 5672 5671 5666 5661 5656 5652 5647 5643 5640 5637 5632 5626 5621 5621 5622 5619 5617 5617 5618 5618 5619 5619 5619 5618
5655 5655 5656 5657 5659 5662 5665 5667 5667 5666 5666 5667 5669 5672 5674 5674 5675 5675 5674 5672 5672 5668 5661 5656 5651 5648 5646 5644 5637 5632 5625 5619 5618 5617 5614 5611 5612 5612 5612 5612 5613 5614 5614
5649 5649 5650 5651 5652 5655 5659 5662 5664 5664 5664 5665 5666 5667 5670 5672 5673 5672 5672 5671 5670 5670 5668 5664 5656 5653 5649 5647 5641 5632 5628 5624 5622 5618 5611 5606 5606 5607 5608 5608 5608 5609 5610
5641 5642 5643 5645 5646 5649 5653 5657 5659 5659 5659 5661 5662 5662 5663 5665 5667 5667 5666 5666 5666 5666 5665 5664 5662 5660 5657 5653 5648 5641 5632 5624 5620 5615 5612 5605 5603 5604 5605 5605 5606 5606 5607
5635 5636 5638 5639 5640 5643 5647 5650 5652 5651 5652 5653 5654 5655 5655 5656 5660 5661 5658 5658 5658 5659 5659 5659 5659 5657 5654 5650 5645 5636 5627 5621 5614 5610 5610 5607 5602 5601 5601 5603 5605 5605 5605
5629 5630 5632 5634 5636 5638 5641 5644 5645 5644 5643 5644 5645 5646 5647 5650 5654 5654 5653 5651 5651 5653 5654 5652 5650 5650 5648 5646 5643 5640 5635 5626 5614 5609 5610 5608 5602 5600 5597 5601 5604 5604 5605